OVERFALLS Weather Reports


time (UTC)temp
F
wind
direction
speed
knots
gust
knots
rain 1hr
in
rain 24hr
in
rain mn
in
humidity
%
barometer
mb
20220930164542 64 42 14.8 24.3 0.00 0.00 0.00 73 1022.2
20220930163048 65 63 13.0 21.7 0.00 0.00 0.00 71 1022.3
20220930161541 65 63 12.2 19.1 0.00 0.00 0.00 70 1022.5
20220930160045 65 97 11.3 21.7 0.00 0.00 0.00 71 1022.8
20220930154615 65 72 13.0 24.3 0.00 0.00 0.00 69 1023.2
20220930153048 65 71 13.0 21.7 0.00 0.00 0.00 68 1023.5
20220930151543 65 52 12.2 20.9 0.00 0.00 0.00 68 1023.5
20220930150046 65 58 12.2 21.7 0.00 0.00 0.00 69 1023.5
20220930144554 65 40 12.2 21.7 0.00 0.00 0.00 70 1023.8
20220930143044 65 90 12.2 21.7 0.00 0.00 0.00 71 1023.9
20220930141538 65 65 13.0 20.9 0.00 0.00 0.00 69 1023.9
20220930140048 65 53 9.6 18.2 0.00 0.00 0.00 70 1023.9
20220930134548 64 47 12.2 20.0 0.00 0.00 0.00 73 1024.0
20220930133040 63 15 9.6 15.6 0.00 0.00 0.00 80 1024.2
20220930131544 62 32 8.7 12.2 0.00 0.00 0.00 81 1024.2
20220930130044 61 31 8.7 13.0 0.00 0.00 0.00 83 1024.2
20220930124551 61 23 8.7 13.9 0.00 0.00 0.00 83 1024.2
20220930123040 61 63 9.6 14.8 0.00 0.00 0.00 83 1024.1
20220930121533 61 21 7.8 13.9 0.00 0.00 0.00 82 1024.1
20220930120038 60 41 9.6 16.5 0.00 0.00 0.00 82 1024.1
20220930114547 60 39 10.4 14.8 0.00 0.00 0.00 83 1023.8
20220930113042 60 50 8.7 15.6 0.00 0.00 0.00 84 1023.8
20220930111545 61 42 10.4 15.6 0.00 0.00 0.00 83 1023.8
20220930110038 61 41 10.4 16.5 0.00 0.00 0.00 83 1023.9
20220930104538 61 43 10.4 16.5 0.00 0.00 0.00 83 1024.0
20220930103048 61 40 10.4 18.2 0.00 0.00 0.00 82 1023.8
20220930101553 61 33 11.3 18.2 0.00 0.00 0.00 82 1023.7
20220930100052 62 43 10.4 19.1 0.00 0.00 0.00 81 1023.8
20220930094545 62 5 10.4 20.0 0.00 0.00 0.00 81 1023.7
20220930093108 62 33 11.3 16.5 0.00 0.00 0.00 82 1023.8
20220930091538 61 37 10.4 17.4 0.00 0.00 0.00 81 1023.9
20220930090045 61 41 11.3 17.4 0.00 0.00 0.00 79 1023.7
20220930084548 62 49 9.6 17.4 0.00 0.00 0.00 77 1023.7
20220930083038 61 34 8.7 16.5 0.00 0.00 0.00 78 1023.6
20220930081552 61 33 10.4 17.4 0.00 0.00 0.00 78 1023.7
20220930080053 61 45 9.6 17.4 0.00 0.00 0.00 79 1023.6
20220930074602 62 44 10.4 15.6 0.00 0.00 0.00 79 1023.6
20220930073045 62 76 9.6 17.4 0.00 0.00 0.00 79 1023.4
20220930071544 62 44 11.3 18.2 0.00 0.00 0.00 77 1023.8
20220930070055 62 54 10.4 16.5 0.00 0.00 0.00 78 1023.9
20220930064547 62 26 11.3 15.6 0.00 0.00 0.00 77 1024.3
20220930063041 62 50 9.6 18.2 0.00 0.00 0.00 77 1024.4
20220930061558 62 38 8.7 17.4 0.00 0.00 0.00 76 1024.6
20220930060051 62 36 8.7 16.5 0.00 0.00 0.00 77 1024.7
20220930054557 62 351 10.4 15.6 0.00 0.00 0.00 75 1024.9
20220930053046 62 51 8.7 14.8 0.00 0.00 0.00 75 1025.1
20220930051538 62 50 10.4 15.6 0.00 0.00 0.00 75 1025.3
20220930050052 63 48 10.4 16.5 0.00 0.00 0.00 74 1025.4
20220930044546 63 62 8.7 14.8 0.00 0.00 0.00 73 1025.5
20220930043041 63 61 9.6 13.9 0.00 0.00 0.00 74 1025.5
20220930041535 63 61 9.6 14.8 0.00 0.00 0.00 72 1025.3
20220930040054 63 41 10.4 15.6 0.00 0.00 0.00 72 1025.4
20220930034545 63 5 7.0 14.8 0.00 0.00 0.00 71 1025.5
20220930033127 63 60 8.7 16.5 0.00 0.00 0.00 70 1025.8
20220930031540 63 45 10.4 17.4 0.00 0.00 0.00 68 1025.7
20220930030044 63 65 10.4 15.6 0.00 0.00 0.00 68 1025.8
20220930024548 63 58 7.8 15.6 0.00 0.00 0.00 70 1025.9
20220930023043 63 55 10.4 15.6 0.00 0.00 0.00 69 1026.0
20220930021601 63 80 7.8 15.6 0.00 0.00 0.00 67 1026.1
20220930020135 63 59 7.8 16.5 0.00 0.00 0.00 67 1026.2
20220930014602 63 63 9.6 17.4 0.00 0.00 0.00 67 1026.1
20220930013040 63 42 8.7 16.5 0.00 0.00 0.00 68 1026.2
20220930011542 63 42 8.7 14.8 0.00 0.00 0.00 69 1026.1
20220930010039 63 41 8.7 15.6 0.00 0.00 0.00 70 1026.2
20220930004543 63 25 7.8 17.4 0.00 0.00 0.00 71 1026.3
20220930003053 63 56 8.7 16.5 0.00 0.00 0.00 70 1026.4
20220930001542 63 80 8.7 15.6 0.00 0.00 0.00 71 1026.3
20220930000054 63 62 7.8 14.8 0.00 0.00 0.00 70 1026.2
20220929234538 63 49 8.7 14.8 0.00 0.00 0.00 71 1026.2
20220929233039 63 74 8.7 15.6 0.00 0.00 0.00 71 1026.0
20220929231548 63 88 8.7 13.9 0.00 0.00 0.00 71 1025.9
20220929230056 63 36 7.0 13.0 0.00 0.00 0.00 71 1026.0
20220929224540 63 64 5.2 13.0 0.00 0.00 0.00 70 1026.2
20220929223038 63 37 6.1 13.9 0.00 0.00 0.00 71 1026.3
20220929221540 63 83 7.8 14.8 0.00 0.00 0.00 69 1026.3
20220929220050 63 74 7.0 13.9 0.00 0.00 0.00 70 1026.3
20220929214548 64 43 7.8 12.2 0.00 0.00 0.00 68 1026.4
20220929213047 64 56 7.0 14.8 0.00 0.00 0.00 69 1026.3
20220929211544 64 37 8.7 13.0 0.00 0.00 0.00 70 1026.4
20220929210045 64 38 7.0 14.8 0.00 0.00 0.00 69 1026.4
20220929204537 64 101 7.8 13.9 0.00 0.00 0.00 69 1026.4
20220929203054 64 82 9.6 14.8 0.00 0.00 0.00 69 1026.4
20220929201600 64 38 9.6 15.6 0.00 0.00 0.00 69 1026.5
20220929200048 64 72 8.7 15.6 0.00 0.00 0.00 69 1026.5
20220929194548 64 88 8.7 14.8 0.00 0.00 0.00 68 1026.5
20220929193047 64 49 8.7 14.8 0.00 0.00 0.00 70 1026.4
20220929191620 64 94 7.8 13.9 0.00 0.00 0.00 70 1026.6
20220929190044 64 24 5.2 11.3 0.00 0.00 0.00 68 1026.5
20220929184548 64 31 5.2 10.4 0.00 0.00 0.00 66 1026.6
20220929183044 65 34 5.2 11.3 0.00 0.00 0.00 65 1026.7
20220929181605 65 35 6.1 10.4 0.00 0.00 0.00 65 1026.9
20220929180052 64 34 6.1 12.2 0.00 0.00 0.00 66 1027.0
20220929174549 64 28 5.2 9.6 0.00 0.00 0.00 66 1027.3
20220929173106 64 355 5.2 11.3 0.00 0.00 0.00 66 1027.7
20220929171549 64 21 7.0 11.3 0.00 0.00 0.00 65 1027.7
20220929170043 64 30 7.0 12.2 0.00 0.00 0.00 67 1027.7